Location: Oberkirch
(48.5323°N, 8.0787°E)
Time: 18:09:18
(UTC+00:00)

Cosmos 968 Rocket - Pass Details

Date: 08 November 2025
Orbit: 735 x 766 km, 74.0° (Epoch: 10 December)

Event Time Altitude Azimuth Distance (km) Brightness Sun altitude
Rises 05:34:19 0° 340° (NNW) 3,232 6.4 -8.7°
Reaches altitude 10° 05:36:47 10° 346° (NNW) 2,307 5.7 -8.3°
Maximum altitude 05:41:51 49° 61° (ENE) 986 4.5 -7.5°
Drops below altitude 10° 05:46:55 10° 136° (SE) 2,301 7.1 -6.7°
Sets 05:49:22 0° 142° (SE) 3,224 7.8 -6.3°
